DLH1 VQPR-VEGT

Flight info

Callsign DLH1
Flight time N/A
Altitude 17000
Route PRO Y5 TAKTI DCT SUBSU DCT OPIMO DCT PAGDA DCT VERU
Aircraft B742/H-VRDW/C

Departure

Time 2026-05-09 04:30
Airport Paro International Airport (VQPR)

Arrival

Time N/A
Airport Lokpriya Gopinath Bordoloi International Airport (VEGT)
Time Latitude Longitude Altitude Speed Heading
2026-05-09 04:24 27.40583 89.42188 7464 ft 0 kts 334°
2026-05-09 04:25 27.40585 89.42186 7464 ft 4 kts 335°
2026-05-09 04:25 27.40618 89.42169 7465 ft 4 kts 334°
2026-05-09 04:25 27.40658 89.42149 7466 ft 9 kts 333°
2026-05-09 04:25 27.40733 89.42103 7469 ft 10 kts 330°
2026-05-09 04:26 27.40783 89.42071 7470 ft 6 kts 333°
2026-05-09 04:26 27.40830 89.42102 7471 ft 11 kts 35°
2026-05-09 04:26 27.40855 89.42116 7471 ft 0 kts 20°
2026-05-09 04:26 27.40866 89.42117 7472 ft 7 kts 355°
2026-05-09 04:27 27.40936 89.42083 7475 ft 12 kts 331°
2026-05-09 04:27 27.41010 89.42037 7478 ft 14 kts 330°
2026-05-09 04:27 27.41095 89.41983 7480 ft 12 kts 329°
2026-05-09 04:27 27.41152 89.41940 7482 ft 6 kts 314°
2026-05-09 04:28 27.41183 89.41899 7483 ft 4 kts 347°
2026-05-09 04:28 27.41194 89.41913 7483 ft 4 kts 104°
2026-05-09 04:28 27.41164 89.41939 7482 ft 0 kts 152°
2026-05-09 04:29 27.40973 89.42059 7477 ft 70 kts 150°
2026-05-09 04:29 27.40323 89.42474 7456 ft 142 kts 149°
2026-05-09 04:30 27.39310 89.43123 7677 ft 177 kts 149°
2026-05-09 04:30 27.38290 89.43792 8440 ft 171 kts 149°
2026-05-09 04:30 27.37241 89.44456 9002 ft 181 kts 149°
2026-05-09 04:30 27.36109 89.45156 9409 ft 191 kts 150°
2026-05-09 04:31 27.34948 89.45881 9939 ft 193 kts 150°
2026-05-09 04:31 27.33793 89.46674 10476 ft 194 kts 135°
2026-05-09 04:31 27.32914 89.47822 10920 ft 199 kts 133°
2026-05-09 04:31 27.31748 89.48687 11446 ft 200 kts 145°
2026-05-09 04:32 27.30624 89.49580 12023 ft 197 kts 151°
2026-05-09 04:32 27.29340 89.50107 12527 ft 200 kts 164°
2026-05-09 04:32 27.27952 89.50398 12937 ft 207 kts 170°
2026-05-09 04:32 27.26492 89.50570 13285 ft 218 kts 173°
2026-05-09 04:33 27.24926 89.50687 13657 ft 229 kts 174°
2026-05-09 04:33 27.23299 89.50777 14035 ft 239 kts 175°
2026-05-09 04:33 27.21598 89.50856 14403 ft 250 kts 175°
2026-05-09 04:33 27.19832 89.50934 14752 ft 261 kts 175°
2026-05-09 04:34 27.17963 89.51013 15115 ft 275 kts 176°
2026-05-09 04:34 27.16006 89.51096 15470 ft 290 kts 176°
2026-05-09 04:34 27.13931 89.51183 15795 ft 307 kts 176°
2026-05-09 04:34 27.11737 89.51265 16144 ft 324 kts 179°
2026-05-09 04:35 27.09426 89.50862 16472 ft 342 kts 197°
2026-05-09 04:35 27.07249 89.49670 16803 ft 359 kts 213°
2026-05-09 04:35 27.05364 89.47752 17120 ft 374 kts 229°
2026-05-09 04:35 27.03964 89.45288 17219 ft 374 kts 245°
2026-05-09 04:36 27.03219 89.42541 17215 ft 367 kts 261°
2026-05-09 04:36 27.03117 89.39670 17251 ft 370 kts 271°
2026-05-09 04:36 27.03155 89.36820 17208 ft 368 kts 269°
2026-05-09 04:36 27.03064 89.33955 17236 ft 368 kts 266°
2026-05-09 04:37 27.02856 89.31091 17232 ft 368 kts 264°
2026-05-09 04:37 27.02587 89.28243 17191 ft 369 kts 263°
2026-05-09 04:37 27.02295 89.25406 17200 ft 366 kts 263°
2026-05-09 04:37 27.01999 89.22576 17226 ft 369 kts 263°
2026-05-09 04:38 27.01698 89.19700 17174 ft 367 kts 264°
2026-05-09 04:38 27.01403 89.16876 17151 ft 367 kts 263°
2026-05-09 04:38 27.01109 89.14048 17215 ft 367 kts 263°
2026-05-09 04:38 27.00811 89.11195 17164 ft 370 kts 263°
2026-05-09 04:39 27.00513 89.08352 17145 ft 367 kts 263°
2026-05-09 04:39 27.00252 89.05860 17138 ft 367 kts 263°
2026-05-09 04:39 26.99951 89.03005 17140 ft 370 kts 263°
2026-05-09 04:39 26.99651 89.00159 17122 ft 368 kts 263°
2026-05-09 04:40 26.99342 88.97347 17142 ft 368 kts 261°
2026-05-09 04:40 26.98596 88.94606 17108 ft 369 kts 245°
2026-05-09 04:40 26.97196 88.92188 17097 ft 370 kts 229°
2026-05-09 04:40 26.95301 88.90243 17092 ft 368 kts 218°
2026-05-09 04:41 26.93102 88.88761 17082 ft 369 kts 202°
2026-05-09 04:41 26.90650 88.88005 17073 ft 367 kts 187°
2026-05-09 04:41 26.88099 88.87993 17065 ft 365 kts 174°
2026-05-09 04:41 26.85579 88.88374 17040 ft 363 kts 170°
2026-05-09 04:42 26.84124 88.88643 17040 ft 362 kts 170°
2026-05-09 04:42 26.82229 88.88997 17038 ft 362 kts 170°
2026-05-09 04:42 26.79758 88.89442 17028 ft 361 kts 170°
2026-05-09 04:42 26.77244 88.89877 17009 ft 362 kts 170°
2026-05-09 04:43 26.74764 88.90295 16999 ft 362 kts 170°
2026-05-09 04:43 26.72255 88.90716 16990 ft 362 kts 170°
2026-05-09 04:43 26.69746 88.91134 16984 ft 364 kts 170°
2026-05-09 04:43 26.67250 88.91550 16987 ft 368 kts 171°
2026-05-09 04:44 26.64721 88.92017 16968 ft 365 kts 166°
2026-05-09 04:44 26.62363 88.93051 16980 ft 366 kts 150°
2026-05-09 04:44 26.60214 88.94611 16969 ft 369 kts 140°
2026-05-09 04:44 26.58456 88.96709 16973 ft 368 kts 124°
2026-05-09 04:45 26.57305 88.99210 16966 ft 366 kts 108°
2026-05-09 04:45 26.56845 89.00989 17762 ft 366 kts 104°
2026-05-09 04:45 26.56519 89.02658 16780 ft 367 kts 101°
2026-05-09 04:45 26.56067 89.05420 16861 ft 365 kts 99°
2026-05-09 04:46 26.55620 89.08244 16973 ft 373 kts 99°
2026-05-09 04:46 26.55152 89.11101 16992 ft 372 kts 99°
2026-05-09 04:46 26.54725 89.13631 16986 ft 370 kts 99°
2026-05-09 04:47 26.54597 89.14382 16986 ft 370 kts 100°
2026-05-09 04:47 26.54117 89.17180 16977 ft 370 kts 100°
2026-05-09 04:47 26.53635 89.19971 16998 ft 367 kts 100°
2026-05-09 04:47 26.53148 89.22787 16996 ft 369 kts 100°
2026-05-09 04:48 26.52661 89.25598 16974 ft 371 kts 100°
2026-05-09 04:48 26.52174 89.28400 16970 ft 363 kts 100°
2026-05-09 04:48 26.51693 89.31175 16986 ft 367 kts 100°
2026-05-09 04:48 26.51206 89.33990 16972 ft 373 kts 100°
2026-05-09 04:49 26.50712 89.36832 16976 ft 370 kts 100°
2026-05-09 04:49 26.50222 89.39648 16974 ft 373 kts 100°
2026-05-09 04:49 26.49728 89.42469 16972 ft 369 kts 99°
2026-05-09 04:49 26.49241 89.45267 16974 ft 369 kts 100°
2026-05-09 04:50 26.48734 89.48071 17047 ft 368 kts 100°
2026-05-09 04:50 26.48628 89.48678 17063 ft 369 kts 100°
2026-05-09 04:50 26.48157 89.51399 17148 ft 373 kts 99°
2026-05-09 04:50 26.47562 89.54227 17219 ft 376 kts 108°
2026-05-09 04:51 26.46406 89.56846 17269 ft 376 kts 123°
2026-05-09 04:51 26.44803 89.59120 17323 ft 377 kts 132°
2026-05-09 04:51 26.42965 89.61208 17299 ft 376 kts 137°
2026-05-09 04:51 26.41252 89.62983 17307 ft 373 kts 138°
2026-05-09 04:52 26.39728 89.64526 17305 ft 375 kts 138°
2026-05-09 04:52 26.37801 89.66473 17298 ft 375 kts 139°
2026-05-09 04:52 26.35873 89.68432 17288 ft 373 kts 139°
2026-05-09 04:52 26.33963 89.70378 17275 ft 372 kts 139°
2026-05-09 04:53 26.32044 89.72333 17292 ft 371 kts 139°
2026-05-09 04:53 26.30155 89.74259 17286 ft 371 kts 139°
2026-05-09 04:53 26.28255 89.76196 17280 ft 370 kts 139°
2026-05-09 04:53 26.26350 89.78139 17277 ft 371 kts 139°
2026-05-09 04:54 26.24445 89.80080 17275 ft 370 kts 139°
2026-05-09 04:54 26.22543 89.82017 17275 ft 370 kts 140°
2026-05-09 04:54 26.20661 89.83931 17277 ft 370 kts 140°
2026-05-09 04:54 26.18752 89.85873 17276 ft 371 kts 140°
2026-05-09 04:55 26.16845 89.87820 17276 ft 371 kts 138°
2026-05-09 04:55 26.15185 89.90032 17274 ft 374 kts 124°
2026-05-09 04:55 26.14088 89.92658 17278 ft 378 kts 110°
2026-05-09 04:55 26.13425 89.95466 17197 ft 381 kts 103°
2026-05-09 04:56 26.12975 89.98363 17018 ft 378 kts 100°
2026-05-09 04:56 26.12603 90.01270 16820 ft 378 kts 99°
2026-05-09 04:56 26.12247 90.04137 16597 ft 374 kts 99°
2026-05-09 04:56 26.11888 90.06982 16359 ft 372 kts 99°
2026-05-09 04:57 26.11522 90.09811 16124 ft 370 kts 99°
2026-05-09 04:57 26.11154 90.12639 15843 ft 370 kts 99°
2026-05-09 04:57 26.10784 90.15452 15515 ft 365 kts 99°
2026-05-09 04:57 26.10421 90.18211 15199 ft 364 kts 99°
2026-05-09 04:58 26.10049 90.21029 14875 ft 363 kts 99°
2026-05-09 04:58 26.09688 90.23771 14538 ft 357 kts 99°
2026-05-09 04:58 26.09330 90.26475 14193 ft 355 kts 99°
2026-05-09 04:58 26.09001 90.29131 13820 ft 339 kts 97°
2026-05-09 04:59 26.08725 90.31747 13306 ft 349 kts 96°
2026-05-09 04:59 26.08434 90.34453 13023 ft 360 kts 97°